Content
SEND FEEDBACK

Daily
Averages
Monthly
Summary
United States of America

SHELBURNE FALLS, MASSACHUSETTS


Home > North America > United States > Massachusetts
Elevation: 122 meters     Latitude: 42 36N     Longitude: 072 44W

WEATHER
 
SELECT A DAY
Number of Records: 212,516;   Date Range: 7/1/96 - 8/28/14
 
SHARE

PRINT THIS DATA

[ ← Previous Day ]
WEATHER ALMANAC - 12 JANUARY, 2014
[ Next Day → ]
[ °F ]   °C
Weather ElementAverageHighLow
Temperature4.1 °C7.8 °C (12:52 am)1.7 °C (11:52 pm)
Dewpoint-2.6 °C5 °C (12:52 am)-5.6 °C (11:52 pm)
Humidity62.3 %83 % (12:52 am)55 % (4:52 pm)
Barometer1004.4 hPa1015.2 hPa (11:52 pm)993.2 hPa (12:52 am)
Wind Speed18.3 km/h27.8 km/h (4:52 am)
Wind Gust50.1 km/h (5:52 am)
Weather ElementAverage
Visibility16.1 km
Wind DirectionWSW (252.5 °)

Weather ElementTotal
Precipitation1.02 mm
Heating Degree Days13.6 (Base 18.3)
Averaged from 24 records on 12 January, 2014
WEATHER CONDITIONS BREAKOUT
WIND DIRECTION BREAKOUT
WEATHER BY HOUR - 12 JANUARY, 2014
[ °F ]   °C
Local TimeTemperatureDewpointHumidityBarometerVisibilityWind DirectionWind SpeedGust SpeedPrecipitationEventsConditions
12:52 AM7.8 °C5 °C83 %993.2 hPa16.1 kmWNW (290°)14.8 km/h31.5 km/h0.51 mmOvercast
1:52 AM6.1 °C3.3 °C82 %994.6 hPa16.1 kmWNW (290°)11.1 km/h0.25 mmRainLight Rain
2:52 AM6.1 °C1.7 °C74 %995.3 hPa16.1 kmWest (280°)13 km/h0.25 mmPartly Cloudy
3:52 AM5.6 °C0.6 °C70 %995.6 hPa16.1 kmWNW (300°)18.5 km/h33.3 km/hPartly Cloudy
4:52 AM5.6 °C0 °C67 %996.3 hPa16.1 kmWest (280°)27.8 km/h44.4 km/hOvercast
5:52 AM4.4 °C-2.8 °C60 %997.6 hPa16.1 kmNW (310°)24.1 km/h50.1 km/hScattered Clouds
6:52 AM3.9 °C-2.8 °C62 %998.3 hPa16.1 kmVariable11.1 km/hOvercast
7:52 AM3.9 °C-2.8 °C62 %999.7 hPa16.1 kmWNW (300°)20.4 km/h42.6 km/hOvercast
8:52 AM3.9 °C-2.8 °C62 %1001 hPa16.1 kmWNW (290°)18.5 km/h31.5 km/hOvercast
9:52 AM3.9 °C-2.8 °C62 %1002.4 hPa16.1 kmWNW (290°)18.5 km/h33.3 km/hOvercast
10:52 AM4.4 °C-3.3 °C58 %1003 hPa16.1 kmNW (310°)27.8 km/h40.7 km/hOvercast
11:52 AM4.4 °C-2.8 °C60 %1003 hPa16.1 kmWest (280°)24.1 km/h42.6 km/hOvercast
12:52 PM5 °C-2.8 °C57 %1003.7 hPa16.1 kmWest (270°)9.3 km/hMostly Cloudy
1:52 PM4.4 °C-3.3 °C58 %1005.1 hPa16.1 kmWNW (290°)25.9 km/h38.9 km/hOvercast
2:52 PM4.4 °C-3.3 °C58 %1005.8 hPa16.1 kmWNW (290°)22.2 km/h35.2 km/hOvercast
3:52 PM3.9 °C-3.9 °C57 %1007.8 hPa16.1 kmWNW (300°)18.5 km/h33.3 km/hOvercast
4:52 PM3.3 °C-5 °C55 %1009.5 hPa16.1 kmWNW (290°)22.2 km/h48.1 km/hOvercast
5:52 PM3.3 °C-4.4 °C57 %1011.2 hPa16.1 kmWNW (290°)20.4 km/h40.7 km/hOvercast
6:52 PM2.8 °C-5 °C57 %1012.2 hPa16.1 kmNorthOvercast
7:52 PM2.2 °C-5 °C59 %1012.9 hPa16.1 kmWNW (300°)20.4 km/h46.3 km/hOvercast
8:52 PM2.2 °C-5 °C59 %1014.2 hPa16.1 kmVariable7.4 km/h33.3 km/hOvercast
9:52 PM2.2 °C-5 °C59 %1014.6 hPa16.1 kmWest (280°)11.1 km/hOvercast
10:52 PM2.2 °C-5 °C59 %1014.9 hPa16.1 kmWest (280°)24.1 km/hOvercast
11:52 PM1.7 °C-5.6 °C59 %1015.2 hPa16.1 kmWSW (250°)11.1 km/hMostly Cloudy
Hourly data recorded from KORE, located 0 kilometers away from Shelburne Falls, Massachusetts







STORIES FROM OUR PARTNERS